Location: Asheville, NC
(35.6000°N, 82.5500°W)
Time: 08:22:19
(UTC-04:00)

QB50P2 - Visible Passes

Search period start: 24 April 2018 00:00
Search period end: 04 May 2018 00:00
Orbit: 595 x 612 km, 97.9° (Epoch: 23 April)

Date Brightness Start Highest point End Pass type
(mag) Time Alt. Az. Time Alt. Az. Time Alt. Az.
29 Apr ? 01:56:37 10° N 01:56:42 11° N 01:56:42 11° N visible
30 Apr ? 02:08:56 10° N 02:09:04 11° N 02:09:04 11° N visible
01 May ? 02:21:22 10° NNW 02:21:26 10° NNW 02:21:26 10° NNW visible
